Location: Radomski Observatory
(40.2854°N, 79.5145°W)
Time: 04:55:38
(UTC-05:00)

Daily predictions for brighter satellites

Satellite Brightness Start Highest point End
(mag) Time Altitude Azimuth Time Altitude Azimuth Time Altitude Azimuth
Cosmos 2369 Rocket 3.2 04:31:57 41° NE 04:32:23 42° ENE 04:37:45 10° SE
Lacrosse 4 Rocket 4.1 04:43:15 13° NE 04:43:44 13° NE 04:45:46 10° ENE
Cosmos 1943 3.2 04:57:04 53° S 04:58:24 76° ESE 05:04:03 10° NNE
Cosmos 1943 Rocket 3.6 04:56:05 19° N 04:59:08 32° ENE 05:04:02 10° ESE
Cosmos 1452 Rocket 4.1 05:00:58 39° NNE 05:02:36 56° ENE 05:07:46 10° SE
CZ-3 R/B 3.6 04:58:03 11° SW 05:11:37 30° S 05:16:46 10° ESE
USA 229 DEB 3.8 05:10:51 10° SSW 05:17:42 76° ESE 05:24:39 10° NE
USA 229 3.8 05:10:58 10° SSW 05:17:48 75° ESE 05:24:45 10° NE
Tiangong 2 3.0 05:20:00 30° ESE 05:20:00 30° ESE 05:21:44 10° ESE
Cosmos 2154 Rocket 3.8 05:13:50 10° S 05:20:02 84° W 05:26:16 10° N
COSMO-SKYMED 1 2.8 05:21:59 10° SSE 05:26:17 68° ENE 05:28:34 27° N
Cosmos 1900 4.3 05:26:55 45° NNW 05:28:26 80° ENE 05:33:23 10° SSE
Cosmos 1536 2.9 05:25:08 10° S 05:31:50 20° N 05:33:10 10° N
Lacrosse 5 2.9 05:31:35 29° NNW 05:31:35 29° NNW 05:35:18 10° NNE
NOAA 6 3.9 05:27:03 10° N 05:32:11 79° WNW 05:37:19 10° SSW
Okean 2 4.3 05:31:21 10° N 05:35:20 49° E 05:39:21 10° SSE
ASTRO E2 4.5 05:35:21 21° SSW 05:36:23 23° S 05:39:36 10° SE
Feng Yun 1-1 Rocket 4.4 05:31:59 10° N 05:37:13 44° WNW 05:42:19 10° SW
Cosmos 2084 3.0 05:39:21 52° SW 05:40:13 84° WNW 05:44:02 10° NNE
Cosmos 44 3.8 05:41:01 41° WNW 05:41:20 41° NW 05:46:14 10° NNE
SL-8 Rocket 4.3 05:37:10 10° S 05:43:22 69° E 05:49:32 10° NNE
Cosmos 1892 Rocket 4.2 05:40:01 10° N 05:44:26 58° E 05:48:51 10° SSE
Cosmos 1269 Rocket 4.1 05:40:49 10° SSW 05:46:05 78° ESE 05:51:24 10° NNE
Meteor 1-28 Rocket 3.7 05:42:23 10° SSE 05:46:07 59° ENE 05:49:43 11° N
CZ-4 R/B 3.8 05:43:26 10° NE 05:46:37 23° E 05:49:45 10° SSE
USA 215 3.3 05:40:20 10° NE 05:46:54 78° SE 05:53:25 10° SW
Cosmos 2263 4.1 05:46:13 26° NW 05:49:21 65° WSW 05:54:51 10° S
Cosmos 1340 2.9 05:47:12 16° N 05:50:08 70° E 05:53:54 10° SSE
Lacrosse 5 rocket 3.9 05:50:35 10° N 05:51:34 11° NNE 05:52:32 10° NNE
Okean 1-7 Rocket 4.0 05:52:12 38° W 05:52:26 38° W 05:56:30 10° SSW
CSL-04 Rocket 4.0 05:47:20 10° NNE 05:52:52 69° ESE 05:58:18 10° S
Cosmos 1420 Rocket 3.9 05:48:40 16° NNW 05:52:55 89° WSW 05:58:07 10° SSE
Cosmos 468 4.4 05:48:02 10° SSW 05:53:16 67° WNW 05:58:34 10° NNE
SL-23 DEB 3.6 05:53:20 42° NNW 05:54:08 60° NE 05:57:42 10° ESE
Cosmos 2366 rocket 4.5 05:51:25 10° S 05:57:37 65° E 06:03:54 10° NNE
CENTAUR R/B 4.5 05:56:21 12° NNW 05:57:39 13° NNW 06:00:44 10° N
Cosmos 1295 Rocket 4.4 05:54:57 10° SSW 06:01:12 69° W 06:07:25 10° N
Ariane Rocket 2.9 05:57:08 10° N 06:02:12 78° WNW 06:07:15 10° SSW
CSL-04 Debris 4.4 05:58:10 10° NNE 06:03:39 73° ESE 06:09:08 10° S
Cosmos 1455 Rocket 3.2 06:01:51 10° S 06:06:09 74° E 06:10:29 10° NNE
Cosmos 1048 Rocket 3.8 06:01:09 10° SSW 06:06:16 77° WNW 06:11:30 10° NNE
Cosmos 2218 Rocket 4.0 06:03:46 10° S 06:10:10 89° W 06:16:36 10° N
ATLAS 5 CENTAUR R/B 4.5 06:09:09 10° N 06:12:06 14° NNE 06:15:10 10° ENE
SKYMED 2 4.2 06:10:29 10° SSW 06:14:24 34° W 06:17:10 17° NW
Cosmos 2369 Rocket 3.2 06:13:48 20° WNW 06:16:09 27° WSW 06:20:50 10° SSW
Cosmos 1975 3.4 06:13:05 10° S 06:17:08 64° E 06:21:12 10° NNE
Lacrosse 4 Rocket 1.3 06:19:38 15° NW 06:22:55 65° WSW 06:26:55 10° SSE
Cosmos 1025 Rocket 4.0 06:20:52 16° NW 06:23:24 27° W 06:27:03 10° SSW
COSMOS 2406 3.3 06:17:49 10° SSW 06:23:28 81° ESE 06:29:10 10° NNE
GRACE-2 4.3 06:22:34 14° NNW 06:24:43 38° W 06:27:20 10° SSW
GRACE-1 4.4 06:23:04 14° NNW 06:25:09 37° W 06:27:44 10° SSW
Meteor 2-4 Rocket 4.4 06:20:46 10° NNW 06:25:39 32° W 06:30:40 10° SSW
Cosmos 1727 Rocket 4.0 06:26:37 10° N 06:32:50 83° W 06:39:03 10° S
NOSS 3-1 (C) 3.4 06:29:25 10° SW 06:35:13 83° NW 06:41:44 10° NNE
SL-27 R/B 2.4 06:35:13 10° SSW 06:38:44 64° WNW 06:42:22 10° NNE
Abrixas rocket 4.0 06:38:30 12° NW 06:40:36 20° N 06:43:09 10° NE
YAOGAN 1 2.8 06:38:25 10° NNE 06:42:46 76° ESE 06:47:05 10° S
Cosmos 1943 Rocket 2.8 06:37:54 10° NW 06:42:51 34° WSW 06:47:45 10° SSW
Cosmos 1110 Rocket 4.1 06:39:59 10° NNW 06:45:15 82° ENE 06:50:26 10° SSE
Cosmos 1515 3.8 06:43:34 10° NNW 06:47:21 57° W 06:51:05 10° S
Helios 1B rocket 2.4 06:45:37 10° SSE 06:49:46 86° WSW 06:53:56 10° NNW
Cosmos 1602 Rocket 3.6 06:47:43 10° NNW 06:52:11 74° W 06:56:36 10° S
Cosmos 1484 Rocket 4.0 06:50:27 10° NNE 06:54:08 47° E 06:57:53 10° S
Cosmos 158 Rocket 4.4 06:49:42 10° SW 06:54:43 41° WNW 06:59:49 10° N
Tiangong 2 3.3 06:52:52 10° WSW 06:54:48 15° SW 06:56:44 10° S
IDEFIX/ARIANE 42P 2.5 06:51:35 10° N 06:56:47 76° WNW 07:01:59 10° SSW
CZ-4C R/B 4.2 06:52:31 10° NNW 06:58:43 32° NE 07:05:30 10° ESE
Cosmos 1656 Rocket 3.9 06:53:45 10° NNW 06:59:19 57° WSW 07:04:52 10° S
USA 129 3.8 06:58:24 10° SW 06:59:34 13° W 07:00:45 10° WNW
Cosmos 1461 3.9 07:01:57 10° WSW 07:05:35 26° NW 07:09:07 10° N
